Time,TemperatureF,DewpointF,PressureIn,WindDirection,WindDirectionDegrees,WindSpeedMPH,WindSpeedGustMPH,Humidity,HourlyPrecipIn,Conditions,Clouds,dailyrainin,SoftwareType,DateUTC
2013-02-15 00:05:00,48.3,44.0,30.10,NNW,343,0.0,1.0,86,0.00,,,0.00,weatherlink.com 1.10,2013-02-15 06:05:00,
2013-02-15 00:20:00,48.0,45.0,30.11,North,352,1.0,2.0,88,0.00,,,0.00,weatherlink.com 1.10,2013-02-15 06:20:00,
2013-02-15 00:35:00,47.6,45.0,30.10,NNW,340,1.0,2.0,89,0.00,,,0.00,weatherlink.com 1.10,2013-02-15 06:35:00,
2013-02-15 00:51:00,47.2,44.0,30.11,NNW,333,0.0,3.0,88,0.00,,,0.00,weatherlink.com 1.10,2013-02-15 06:51:00,
2013-02-15 01:06:00,47.5,45.0,30.11,NW,304,0.0,2.0,89,0.00,,,0.00,weatherlink.com 1.10,2013-02-15 07:06:00,
2013-02-15 01:21:00,47.1,44.0,30.11,NNE,33,2.0,2.0,90,0.00,,,0.00,weatherlink.com 1.10,2013-02-15 07:21:00,
2013-02-15 01:36:00,47.0,44.0,30.11,NNW,343,0.0,2.0,89,0.00,,,0.00,weatherlink.com 1.10,2013-02-15 07:36:00,
2013-02-15 01:51:00,46.9,44.0,30.11,NNW,347,2.0,2.0,89,0.00,,,0.00,weatherlink.com 1.10,2013-02-15 07:51:00,
2013-02-15 02:06:00,46.6,43.0,30.10,North,353,1.0,2.0,88,0.00,,,0.00,weatherlink.com 1.10,2013-02-15 08:06:00,
2013-02-15 02:21:00,46.3,43.0,30.10,NNW,339,1.0,1.0,89,0.00,,,0.00,weatherlink.com 1.10,2013-02-15 08:21:00,
2013-02-15 02:36:00,46.0,43.0,30.10,NNW,343,1.0,3.0,89,0.00,,,0.00,weatherlink.com 1.10,2013-02-15 08:36:00,
2013-02-15 02:51:00,45.9,43.0,30.10,NNE,33,0.0,1.0,90,0.00,,,0.00,weatherlink.com 1.10,2013-02-15 08:51:00,
2013-02-15 03:06:00,46.0,44.0,30.10,North,11,1.0,1.0,91,0.00,,,0.00,weatherlink.com 1.10,2013-02-15 09:06:00,
2013-02-15 03:21:00,45.9,43.0,30.10,NNE,23,1.0,3.0,90,0.00,,,0.00,weatherlink.com 1.10,2013-02-15 09:21:00,
2013-02-15 03:36:00,45.8,43.0,30.10,NNW,348,0.0,3.0,90,0.00,,,0.00,weatherlink.com 1.10,2013-02-15 09:36:00,
2013-02-15 03:51:00,45.3,43.0,30.10,NE,51,0.0,1.0,90,0.00,,,0.00,weatherlink.com 1.10,2013-02-15 09:51:00,
2013-02-15 04:06:00,45.6,43.0,30.11,NNE,18,1.0,3.0,90,0.00,,,0.00,weatherlink.com 1.10,2013-02-15 10:06:00,
2013-02-15 04:21:00,45.5,43.0,30.11,NE,34,5.0,5.0,91,0.00,,,0.00,weatherlink.com 1.10,2013-02-15 10:21:00,
2013-02-15 04:36:00,46.0,44.0,30.11,ENE,58,3.0,5.0,91,0.00,,,0.00,weatherlink.com 1.10,2013-02-15 10:36:00,
2013-02-15 04:51:00,46.1,44.0,30.12,NNE,29,2.0,5.0,91,0.00,,,0.00,weatherlink.com 1.10,2013-02-15 10:51:00,
2013-02-15 05:06:00,45.5,43.0,30.12,NNE,23,4.0,6.0,90,0.00,,,0.00,weatherlink.com 1.10,2013-02-15 11:06:00,
2013-02-15 05:21:00,45.3,43.0,30.13,NE,39,6.0,6.0,91,0.00,,,0.00,weatherlink.com 1.10,2013-02-15 11:21:00,
2013-02-15 05:36:00,45.5,43.0,30.13,NE,43,6.0,7.0,90,0.00,,,0.00,weatherlink.com 1.10,2013-02-15 11:36:00,
2013-02-15 05:51:00,45.5,43.0,30.12,NNE,27,2.0,8.0,89,0.00,,,0.00,weatherlink.com 1.10,2013-02-15 11:51:00,
2013-02-15 06:06:00,45.6,43.0,30.13,NNE,13,3.0,6.0,90,0.00,,,0.00,weatherlink.com 1.10,2013-02-15 12:06:00,
2013-02-15 06:21:00,45.5,43.0,30.14,NE,36,4.0,6.0,90,0.00,,,0.00,weatherlink.com 1.10,2013-02-15 12:21:00,
2013-02-15 06:37:00,45.4,42.0,30.14,NE,34,1.0,5.0,89,0.00,,,0.00,weatherlink.com 1.10,2013-02-15 12:37:00,
2013-02-15 06:52:00,45.4,42.0,30.15,North,8,3.0,5.0,89,0.00,,,0.00,weatherlink.com 1.10,2013-02-15 12:52:00,
2013-02-15 07:06:00,45.6,42.0,30.15,NNE,16,4.0,6.0,88,0.00,,,0.00,weatherlink.com 1.10,2013-02-15 13:06:00,
2013-02-15 07:21:00,46.0,43.0,30.15,NE,53,4.0,5.0,88,0.00,,,0.00,weatherlink.com 1.10,2013-02-15 13:21:00,
2013-02-15 07:36:00,46.6,43.0,30.16,NNE,33,6.0,7.0,86,0.00,,,0.00,weatherlink.com 1.10,2013-02-15 13:36:00,
2013-02-15 07:51:00,46.8,42.0,30.17,NE,46,7.0,8.0,84,0.00,,,0.00,weatherlink.com 1.10,2013-02-15 13:51:00,
2013-02-15 08:06:00,47.5,43.0,30.17,NE,51,3.0,7.0,83,0.00,,,0.00,weatherlink.com 1.10,2013-02-15 14:06:00,
2013-02-15 08:21:00,48.7,43.0,30.17,NNE,33,3.0,5.0,82,0.00,,,0.00,weatherlink.com 1.10,2013-02-15 14:21:00,
2013-02-15 08:36:00,49.5,44.0,30.18,NE,34,2.0,6.0,82,0.00,,,0.00,weatherlink.com 1.10,2013-02-15 14:36:00,
2013-02-15 08:52:00,50.7,44.0,30.17,ENE,60,3.0,5.0,79,0.00,,,0.00,weatherlink.com 1.10,2013-02-15 14:52:00,
2013-02-15 09:07:00,51.9,45.0,30.17,North,11,4.0,5.0,77,0.00,,,0.00,weatherlink.com 1.10,2013-02-15 15:07:00,
2013-02-15 09:22:00,53.0,44.0,30.18,ENE,67,3.0,6.0,72,0.00,,,0.00,weatherlink.com 1.10,2013-02-15 15:22:00,
2013-02-15 09:37:00,54.1,45.0,30.18,North,4,5.0,6.0,70,0.00,,,0.00,weatherlink.com 1.10,2013-02-15 15:37:00,
2013-02-15 09:52:00,54.7,45.0,30.18,NE,50,1.0,6.0,69,0.00,,,0.00,weatherlink.com 1.10,2013-02-15 15:52:00,
2013-02-15 10:07:00,55.7,46.0,30.18,ENE,75,5.0,5.0,69,0.00,,,0.00,weatherlink.com 1.10,2013-02-15 16:07:00,
2013-02-15 10:22:00,56.3,46.0,30.17,NNE,19,6.0,6.0,68,0.00,,,0.00,weatherlink.com 1.10,2013-02-15 16:22:00,
2013-02-15 10:37:00,57.6,45.0,30.16,East,89,2.0,6.0,63,0.00,,,0.00,weatherlink.com 1.10,2013-02-15 16:37:00,
2013-02-15 10:52:00,58.6,44.0,30.16,East,79,5.0,8.0,58,0.00,,,0.00,weatherlink.com 1.10,2013-02-15 16:52:00,
2013-02-15 11:07:00,58.8,43.0,30.16,NW,304,2.0,9.0,56,0.00,,,0.00,weatherlink.com 1.10,2013-02-15 17:07:00,
2013-02-15 11:22:00,58.8,43.0,30.15,NNE,30,4.0,8.0,57,0.00,,,0.00,weatherlink.com 1.10,2013-02-15 17:22:00,
2013-02-15 11:37:00,59.6,43.0,30.14,NNW,342,3.0,7.0,54,0.00,,,0.00,weatherlink.com 1.10,2013-02-15 17:37:00,
2013-02-15 11:52:00,59.5,43.0,30.13,NNW,333,4.0,7.0,54,0.00,,,0.00,weatherlink.com 1.10,2013-02-15 17:52:00,
2013-02-15 12:07:00,60.0,41.0,30.12,NNW,347,4.0,5.0,50,0.00,,,0.00,weatherlink.com 1.10,2013-02-15 18:07:00,
2013-02-15 12:22:00,61.2,39.0,30.11,East,94,2.0,4.0,44,0.00,,,0.00,weatherlink.com 1.10,2013-02-15 18:22:00,
2013-02-15 12:37:00,62.6,46.0,30.10,SSE,160,0.0,6.0,54,0.00,,,0.00,weatherlink.com 1.10,2013-02-15 18:37:00,
2013-02-15 12:52:00,63.8,45.0,30.10,SE,143,3.0,7.0,51,0.00,,,0.00,weatherlink.com 1.10,2013-02-15 18:52:00,
2013-02-15 13:07:00,64.1,46.0,30.09,SE,144,3.0,7.0,52,0.00,,,0.00,weatherlink.com 1.10,2013-02-15 19:07:00,
2013-02-15 13:22:00,63.8,45.0,30.09,SSW,197,4.0,8.0,51,0.00,,,0.00,weatherlink.com 1.10,2013-02-15 19:22:00,
2013-02-15 13:37:00,63.8,45.0,30.08,South,177,5.0,7.0,51,0.00,,,0.00,weatherlink.com 1.10,2013-02-15 19:37:00,
2013-02-15 14:08:00,63.4,44.0,30.07,SSW,208,4.0,7.0,49,0.00,,,0.00,weatherlink.com 1.10,2013-02-15 20:08:00,
2013-02-15 14:38:00,62.4,44.0,30.07,SW,232,2.0,8.0,51,0.00,,,0.00,weatherlink.com 1.10,2013-02-15 20:38:00,
2013-02-15 14:53:00,61.9,44.0,30.07,SSW,193,3.0,7.0,53,0.00,,,0.00,weatherlink.com 1.10,2013-02-15 20:53:00,
2013-02-15 15:08:00,61.8,44.0,30.06,SW,222,3.0,8.0,53,0.00,,,0.00,weatherlink.com 1.10,2013-02-15 21:08:00,
2013-02-15 15:23:00,61.7,44.0,30.06,WSW,239,6.0,7.0,52,0.00,,,0.00,weatherlink.com 1.10,2013-02-15 21:23:00,
2013-02-15 15:38:00,61.6,44.0,30.06,WSW,238,7.0,9.0,52,0.00,,,0.00,weatherlink.com 1.10,2013-02-15 21:38:00,
2013-02-15 15:53:00,60.8,44.0,30.06,SW,218,4.0,9.0,54,0.00,,,0.00,weatherlink.com 1.10,2013-02-15 21:53:00,
2013-02-15 16:08:00,59.8,44.0,30.06,West,264,4.0,9.0,57,0.00,,,0.00,weatherlink.com 1.10,2013-02-15 22:08:00,
2013-02-15 16:23:00,59.6,45.0,30.06,SW,235,10.0,11.0,60,0.00,,,0.00,weatherlink.com 1.10,2013-02-15 22:23:00,
2013-02-15 16:38:00,59.4,45.0,30.06,WSW,249,5.0,11.0,60,0.00,,,0.00,weatherlink.com 1.10,2013-02-15 22:38:00,
2013-02-15 16:53:00,59.2,46.0,30.05,SW,222,3.0,8.0,63,0.00,,,0.00,weatherlink.com 1.10,2013-02-15 22:53:00,
2013-02-15 17:08:00,58.6,46.0,30.05,WSW,249,3.0,8.0,64,0.00,,,0.00,weatherlink.com 1.10,2013-02-15 23:08:00,
2013-02-15 17:23:00,57.6,46.0,30.06,West,277,4.0,8.0,66,0.00,,,0.00,weatherlink.com 1.10,2013-02-15 23:23:00,
2013-02-15 17:38:00,57.0,46.0,30.06,West,259,3.0,6.0,67,0.00,,,0.00,weatherlink.com 1.10,2013-02-15 23:38:00,
2013-02-15 17:53:00,56.5,46.0,30.06,WNW,297,4.0,8.0,68,0.00,,,0.00,weatherlink.com 1.10,2013-02-15 23:53:00,
2013-02-15 18:08:00,56.1,46.0,30.07,WNW,297,7.0,9.0,70,0.00,,,0.00,weatherlink.com 1.10,2013-02-16 00:08:00,
2013-02-15 18:23:00,55.7,46.0,30.07,WNW,293,6.0,8.0,71,0.00,,,0.00,weatherlink.com 1.10,2013-02-16 00:23:00,
2013-02-15 18:38:00,55.3,46.0,30.07,West,270,4.0,8.0,71,0.00,,,0.00,weatherlink.com 1.10,2013-02-16 00:38:00,
2013-02-15 18:53:00,54.9,46.0,30.07,West,277,5.0,6.0,73,0.00,,,0.00,weatherlink.com 1.10,2013-02-16 00:53:00,
2013-02-15 19:08:00,54.8,46.0,30.07,West,264,6.0,8.0,72,0.00,,,0.00,weatherlink.com 1.10,2013-02-16 01:08:00,
2013-02-15 19:23:00,54.7,45.0,30.08,WNW,283,2.0,11.0,71,0.00,,,0.00,weatherlink.com 1.10,2013-02-16 01:23:00,
2013-02-15 19:38:00,54.9,46.0,30.08,West,276,4.0,8.0,71,0.00,,,0.00,weatherlink.com 1.10,2013-02-16 01:38:00,
2013-02-15 19:53:00,54.6,46.0,30.08,West,276,2.0,6.0,73,0.00,,,0.00,weatherlink.com 1.10,2013-02-16 01:53:00,
2013-02-15 20:08:00,54.4,46.0,30.08,SW,233,2.0,6.0,74,0.00,,,0.00,weatherlink.com 1.10,2013-02-16 02:08:00,
2013-02-15 20:23:00,54.0,46.0,30.09,West,271,3.0,4.0,75,0.00,,,0.00,weatherlink.com 1.10,2013-02-16 02:23:00,
2013-02-15 20:38:00,54.1,46.0,30.09,West,280,2.0,7.0,75,0.00,,,0.00,weatherlink.com 1.10,2013-02-16 02:38:00,
2013-02-15 20:53:00,54.1,47.0,30.09,West,272,5.0,5.0,76,0.00,,,0.00,weatherlink.com 1.10,2013-02-16 02:53:00,
2013-02-15 21:08:00,54.1,47.0,30.09,West,281,4.0,7.0,78,0.00,,,0.00,weatherlink.com 1.10,2013-02-16 03:08:00,
2013-02-15 21:23:00,54.4,47.0,30.09,WNW,288,6.0,8.0,77,0.00,,,0.00,weatherlink.com 1.10,2013-02-16 03:23:00,
2013-02-15 21:38:00,54.4,47.0,30.09,West,271,3.0,8.0,77,0.00,,,0.00,weatherlink.com 1.10,2013-02-16 03:38:00,
2013-02-15 21:54:00,54.4,48.0,30.09,West,269,5.0,8.0,79,0.00,,,0.00,weatherlink.com 1.10,2013-02-16 03:54:00,
2013-02-15 22:08:00,54.5,48.0,30.09,WNW,295,3.0,6.0,80,0.00,,,0.00,weatherlink.com 1.10,2013-02-16 04:08:00,
2013-02-15 22:23:00,54.5,48.0,30.09,WSW,257,5.0,7.0,80,0.00,,,0.00,weatherlink.com 1.10,2013-02-16 04:23:00,
2013-02-15 22:39:00,54.6,49.0,30.09,NW,311,4.0,8.0,80,0.00,,,0.00,weatherlink.com 1.10,2013-02-16 04:39:00,
2013-02-15 22:53:00,54.4,49.0,30.09,West,281,2.0,9.0,81,0.00,,,0.00,weatherlink.com 1.10,2013-02-16 04:53:00,
2013-02-15 23:08:00,53.9,49.0,30.08,WNW,283,4.0,10.0,82,0.00,,,0.00,weatherlink.com 1.10,2013-02-16 05:08:00,
2013-02-15 23:23:00,53.5,49.0,30.08,WNW,288,6.0,8.0,83,0.00,,,0.00,weatherlink.com 1.10,2013-02-16 05:23:00,
2013-02-15 23:38:00,53.4,49.0,30.08,NW,311,3.0,10.0,84,0.00,,,0.00,weatherlink.com 1.10,2013-02-16 05:38:00,
2013-02-15 23:53:00,53.6,48.0,30.08,NW,311,6.0,11.0,82,0.00,,,0.00,weatherlink.com 1.10,2013-02-16 05:53:00,